sat.trackr.live / text

‹ back to catalog

STARLINK-31038

NORAD 58605 · 2023-200S

PAYLOAD ACTIVE UNKNOWN

§ Identity

Operator
Country
US
Launch date
2023-12-19
Launch site
AFETR
Launch vehicle
Mass (kg)
RCS (m²)

Purposes: comms

External: N2YO · Heavens-Above · Gunter

§ Orbital elements

Epoch: 2026-05-25T03:02:54.576384Z

Period
93.98 min
Inclination
43.0001°
Eccentricity
0.0004867
Mean motion
15.32225300 rev/d
Perigee alt
465.8 km
Apogee alt
472.5 km
Semi-major
6,847.3 km
B*
1.5083e-3
RAAN
96.0801°
Arg perigee
171.1399°
Mean anomaly
188.9541°
Rev number
13,531

§ Raw data

STARLINK-310381 58605U 23200S   26145.12702056  .00047971  00000+0  15083-2 0  99982 58605  43.0001  96.0801 0004867 171.1399 188.9541 15.32225300135316

JSON: /api/v1/satellites/58605 · /tle

For live sub-satellite position, see the globe view (requires WebGL).

§ Visibility from observer

Set your observer location to see the next 7 days of passes ≥ 10°. The values pass through the URL so the page stays shareable.

No JS? Fill the form by hand. The geolocation button needs JavaScript.